Location: Pettit
(39.0209°N, 79.7181°W)
Time: 19:07:03
(UTC+00:00)

ACS3 Solar Sail - Pass Details

Date: 20 April 2026
Orbit: 894 x 947 km, 97.2° (Epoch: 12 May)

Event Time Altitude Azimuth Distance (km) Brightness Sun altitude
Rises 07:52:53 0° 355° (N) 3,547 5.3 -27.9°
Reaches altitude 10° 07:56:00 10° 338° (NNW) 2,610 4.3 -27.4°
Enters shadow 07:59:13 18° 304° (NW) 2,078 3.4 -27.0°
